Weather History for Frederick, OK

Change the Weather History Date:

Wednesday, November 21, 2012

  Actual Average (KLTS) Record (KLTS)
Temperature  
Mean Temperature 62 °F -  
Max Temperature 78 °F 56 °F 79 °F (2010)
Min Temperature 45 °F 35 °F 24 °F (2000)
Degree Days  
Heating Degree Days 4    
Growing Degree Days 12 (Base 50)    
Moisture  
Dew Point 46 °F    
Average Humidity 62    
Maximum Humidity 90    
Minimum Humidity 30    
Precipitation  
Precipitation 0.00 in - - ()
Sea Level Pressure  
Sea Level Pressure 30.11 in    
Wind  
Wind Speed 9 mph (SE)    
Max Wind Speed 17 mph    
Max Gust Speed 23 mph    
Visibility 10 miles    
Events      
Averages and records for this station are not official NWS values.
T = Trace of Precipitation, MM = Missing Value Source: NWS Daily Summary

Daily Weather History Graph

Daily Weather History Graph

Search for Another Location

Airport:

Trip Planner

Search our weather history database for the weather conditions in past years. The results will help you decide how hot, cold, wet, or windy it might be!

Date:

Astronomy

Nov. 21, 2012 Rise Set
Actual Time 7:15 AM CST 5:28 PM CST
Civil Twilight 6:48 AM CST 5:55 PM CST
Nautical Twilight 6:17 AM CST 6:25 PM CST
Astronomical Twilight 5:47 AM CST 6:56 PM CST
Moon 1:31 PM CST (11/21) 12:51 AM CST (11/21)
Length of Visible Light 11h 07m
Length of Day
10h 13m
First Quarter, 62% of the Moon is Illuminated
Nov 21
First Quarter
Nov 28
Full
Dec 6
Last Quarter
Dec 13
New
Dec 19
First Quarter

Hourly Weather History & Observations

Time (CST) Temp. Windchill Dew Point Humidity Pressure Visibility Wind Dir Wind Speed Gust Speed Precip Events Conditions
12:53 AM 51.1 °F - 44.1 °F 77% 30.14 in 10.0 mi NE 6.9 mph - N/A   Clear
1:53 AM 50.0 °F - 44.1 °F 80% 30.15 in 10.0 mi NE 8.1 mph - N/A   Clear
2:53 AM 48.9 °F - 43.0 °F 80% 30.15 in 10.0 mi NE 4.6 mph - N/A   Clear
3:53 AM 48.0 °F - 43.0 °F 83% 30.15 in 10.0 mi ENE 5.8 mph - N/A   Clear
4:53 AM 46.9 °F - 43.0 °F 86% 30.16 in 10.0 mi NE 5.8 mph - N/A   Clear
5:53 AM 46.0 °F 43.1 °F 43.0 °F 89% 30.17 in 10.0 mi East 5.8 mph - N/A   Clear
6:53 AM 45.0 °F 42.6 °F 42.1 °F 90% 30.18 in 10.0 mi ENE 4.6 mph - N/A   Clear
7:53 AM 48.0 °F - 43.0 °F 83% 30.19 in 10.0 mi ESE 6.9 mph - N/A   Clear
8:53 AM 55.0 °F - 46.0 °F 72% 30.20 in 10.0 mi ESE 4.6 mph - N/A   Clear
9:53 AM 63.0 °F - 48.0 °F 58% 30.19 in 10.0 mi South 8.1 mph - N/A   Clear
10:53 AM 66.9 °F - 50.0 °F 54% 30.19 in 10.0 mi South 6.9 mph - N/A   Clear
11:53 AM 73.0 °F - 51.1 °F 46% 30.16 in 10.0 mi SSW 13.8 mph - N/A   Clear
12:53 PM 75.0 °F - 52.0 °F 44% 30.11 in 10.0 mi South 16.1 mph 23.0 mph N/A   Clear
1:53 PM 77.0 °F - 48.0 °F 36% 30.08 in 10.0 mi SSW 16.1 mph 23.0 mph N/A   Clear
2:53 PM 78.1 °F - 48.0 °F 35% 30.05 in 10.0 mi South 13.8 mph - N/A   Clear
3:53 PM 75.9 °F - 42.1 °F 30% 30.05 in 10.0 mi South 17.3 mph - N/A   Clear
4:53 PM 75.0 °F - 46.0 °F 36% 30.04 in 10.0 mi South 15.0 mph - N/A   Clear
5:53 PM 68.0 °F - 46.9 °F 47% 30.04 in 10.0 mi South 10.4 mph - N/A   Clear
6:53 PM 66.0 °F - 48.0 °F 52% 30.04 in 10.0 mi SSE 10.4 mph - N/A   Clear
7:53 PM 64.0 °F - 48.9 °F 58% 30.05 in 10.0 mi SSE 11.5 mph - N/A   Clear
8:53 PM 62.1 °F - 48.9 °F 62% 30.04 in 10.0 mi South 11.5 mph - N/A   Clear
9:53 PM 61.0 °F - 48.0 °F 62% 30.02 in 10.0 mi South 10.4 mph - N/A   Clear
10:53 PM 60.1 °F - 48.9 °F 67% 30.00 in 10.0 mi South 10.4 mph - N/A   Clear
11:53 PM 60.1 °F - 48.9 °F 67% 29.98 in 10.0 mi South 11.5 mph - N/A   Clear